This is the latest recevied weather packets stored in our database for station/object K0PFX-8. If no packets are shown the sender has not sent any weather packets the latest 10 day(s).
| Time | Temp. | Humidity | Pressure | Rain* | Wind** | Luminosity | Snow |
|---|---|---|---|---|---|---|---|
| 1778087961 | 14.44° C | 44% | 1017.8 hPa | 0 mm | 2.68 m/s, 359° | - | - |
| 1778087060 | 13.89° C | 60% | 1017.7 hPa | 0 mm | 4.02 m/s, 249° | - | - |
| 1778086161 | 13.33° C | 73% | 1017.7 hPa | 0 mm | 1.34 m/s, 276° | - | - |
| 1778085260 | 12.22° C | 81% | 1017.6 hPa | 0 mm | 2.24 m/s, 316° | - | - |
| 1778084362 | 11.67° C | 83% | 1017.7 hPa | 0 mm | 4.02 m/s, 250° | - | - |
| 1778083461 | 11.67° C | 85% | 1017.5 hPa | 0 mm | 2.68 m/s, 288° | - | - |
| 1778082562 | 11.11° C | 86% | 1017.5 hPa | 0 mm | 1.34 m/s, 281° | - | - |
| 1778081661 | 11.11° C | 90% | 1017.3 hPa | 0 mm | 0 m/s | - | - |
| 1778080763 | 10.56° C | 93% | 1017.1 hPa | 0 mm | 0 m/s | - | - |
| 1778078963 | 10° C | 100% | 1016.9 hPa | 0 mm | 3.58 m/s, 262° | - | - |
| 1778078063 | 10° C | 100% | 1016.8 hPa | 0 mm | 0 m/s | - | - |
| 1778077169 | 9.44° C | 60% | 1016.8 hPa | 0 mm | 0 m/s | - | - |
| 1778077164 | 9.44° C | 100% | 1016.8 hPa | 0 mm | 0 m/s | - | - |
| 1778076263 | 9.44° C | 100% | 1017.2 hPa | 0 mm | 2.68 m/s, 255° | - | - |
| 1778075365 | 9.44° C | 100% | 1016.8 hPa | 0 mm | 2.68 m/s, 273° | - | - |
| 1778074464 | 8.89° C | 100% | 1016.8 hPa | 0 mm | 3.13 m/s, 274° | - | - |
| 1778073565 | 8.89° C | 100% | 1016.8 hPa | 0 mm | 0.45 m/s, 235° | - | - |
| 1778072665 | 8.89° C | 100% | 1016.7 hPa | 0 mm | 0 m/s | - | - |
| 1778071766 | 8.89° C | 100% | 1016.6 hPa | 0 mm | 0.89 m/s, 253° | - | - |
| 1778070865 | 8.89° C | 100% | 1016.6 hPa | 0.25 mm | 0 m/s | - | - |
| 1778069967 | 8.89° C | 100% | 1016.6 hPa | 0.25 mm | 0.89 m/s, 252° | - | - |
| 1778069066 | 8.33° C | 100% | 1016 hPa | 0.25 mm | 0 m/s | - | - |
| 1778068167 | 8.33° C | 100% | 1016.4 hPa | 0.25 mm | 0.89 m/s, 239° | - | - |
| 1778067265 | 8.33° C | 100% | 1015.9 hPa | 0.25 mm | 0 m/s | - | - |
| 1778066367 | 8.33° C | 100% | 1015.7 hPa | 0.25 mm | 2.24 m/s, 243° | - | - |
* Rain latest hour (hover to see other rain measurements)
** Current wind speed in m/s (hover to see current wind gust speed)